Find Starlink 30307

NORAD ID: 57747 Int'l Des: 2023-131 Owner: SPXS Country: US Constellation: starlink operational
LEOCIRCULAR

リアルタイム位置

3D地球を読み込み中...

Starlink 30307について

説明を読み込み中...

次回通過

Passes for default location (London). Set your location on the main map for personalized predictions.

高度履歴

Loading altitude history...

軌道要素

1 57747U 23131R 26139.36700948 .00002640 00000-0 10547-3 0 9990
2 57747 43.0022 133.4720 0001206 267.6956 92.3758 15.27567185150729
Epoch: May 19, 2026 • Age: 14 hours

現在のステータス

高度 494.3 km
速度 7.62 km/s
衛星直下点 -39.95°S, 159.17°E
打ち上げ日 Sep 1, 2023
運用期間 2.7 years
タイプ internet

技術仕様

分類 Payload
質量 730.00 kg
乾燥質量 700.00 kg
総質量 730.00 kg
長さ 0.30 m
直径 4.10 m
スパン 29.00 m
形状 Box + pan
製造者 SPXS
バスタイプ Starlink V2M
フェーズステータス In Orbit
所有者/国 SPXS/US

Most Searched